ATLAS 5 CENTAUR DEB, 44644

Orbit data source: Space-Track

ATLAS 5 CENTAUR DEB, 44644 is space debris in HEO originally from a launch on Wed, 17 Oct 2018 UTC launched from the Air Force Eastern Test Range (AFETR). Debris objects in space refer to the collection of defunct objects orbiting the Earth. Examples of debris include non-operational satellites, rocket bodies, and fragments generated from explosions, collisions, or faulty payload assembly.

Loading next visibility...
Identifier
44644, 2018-079E
Orbit
HEO
Country
Flag of USUS
Related business
Flag of USUnited Launch Alliance/Lockheed Martin (US)
Manufacturer
ULA Decatur
Mission
Spacecraft
Bus & Motor
Unknown
Mass
Unknown
Launch date (UTC)
2018-10-17 (8 years ago)
Launch vehicle
Unknown
Launch site
Air Force Eastern Test Range (AFETR)
Object type
Payload
Rocket body
Debris
Shape & HBR
Unknown shape, 1.1 m
Radar Cross Section
Medium (>0.1 m² and <1 m²)

Expand to show TLE details & history
Last TLE update: 3 days ago

TLE from 3 days ago
0 ATLAS 5 CENTAUR DEB
1 44644U 18079E   26216.78277312 -.00000065  00000-0  00000-0 0  9993
2 44644  13.1906  15.8848 4537288   7.4416 357.4426  1.94057824 51936
Epoch: 2026-08-04T18:47Z
TLE epoch observation values (Epoch: 2026-08-04T18:47:11.597Z)
Latitude
0.00009°
Longitude
140.75896°
Altitude
8,509.771 km
Speed
6.234 km/s
True Right ascension
01h 03m 36s
True Declination
0° 00' 00"
Sunlit
Object was in daylight at epoch
Visualization orbit readout
Latitude
Unknown
Longitude
Unknown
Altitude
Unknown
Speed
Unknown
Apparent Right ascension
Unknown
Apparent Declination
Unknown
Sunlit
N/A
Visualization observer readout
Local Sidereal Time
15:06:13
Azimuth
Unknown
Elevation
Unknown
Doppler factor
Unknown
Orbital elements
Apogee altitude
33,094.717 km
Perigee altitude
8,454.673 km
Semi-major axis
27,152.832 km
Eccentricity
0.45373
Inclination
13.1906°
RAAN
15.8848°
Arg. of periapsis
7.4416°
True anomaly
352.37697°
Mean anomaly
357.4426°
Eccentric anomaly
355.32276°
Mean motion
0.48509 °/min
Orbital period
742.13 mins
BSTAR
0
Loading maneuver chart data...
Computing Atmospheric mass density...

Documentation

Showing up to 5 results
|